Clinton-Sherman, OK

9:50 PM CST on December 12, 2017 (GMT -0600)
Clinton-Sherman

Weather History for KCSM - May, 2013

Change the Weather History Date:

Saturday, May 25, 2013

  Actual Average Record
Temperature  
Mean Temperature 73 °F -  
Max Temperature 86 °F 82 °F 99 °F (2006)
Min Temperature 62 °F 58 °F 46 °F (2001)
Cooling Degree Days 8    
Growing Degree Days 23 (Base 50)    
Moisture  
Dew Point 62 °F    
Average Humidity 71    
Maximum Humidity 90    
Minimum Humidity 43    
Precipitation  
Precipitation 0.00 in - - ()
Sea Level Pressure  
Sea Level Pressure 30.04 in    
Wind  
Wind Speed 17 mph (South)    
Max Wind Speed 26 mph    
Max Gust Speed 33 mph    
Visibility 10 miles    
Events      
Averages and records for this station are not official NWS values.
T = Trace of Precipitation, MM = Missing Value Source: NWS Daily Summary

Daily Weather History Graph

Daily Weather History Graph

Search for Another Location

Airport or City:

Trip Planner

Search our weather history database for the weather conditions in past years. The results will help you decide how hot, cold, wet, or windy it might be!

Date:

Astronomy

May. 25, 2013 Rise Set
Actual Time 6:25 AM CDT 8:41 PM CDT
Civil Twilight 5:56 AM CDT 9:10 PM CDT
Nautical Twilight 5:21 AM CDT 9:46 PM CDT
Astronomical Twilight 4:42 AM CDT 10:25 PM CDT
Moon 9:32 PM CDT (5/25) 6:53 AM CDT (5/25)
Length of Visible Light 15h 14m
Length of Day
14h 16m
Full, 100% of the Moon is Illuminated
May 25
Full
May 31
Last Quarter
Jun 8
New
Jun 16
First Quarter
Jun 23
Full

Hourly Weather History & Observations

Time (CDT) Temp. Heat Index Dew Point Humidity Pressure Visibility Wind Dir Wind Speed Gust Speed Precip Events Conditions
12:53 AM 66.0 °F - 60.1 °F 81% 30.07 in 10.0 mi South 15.0 mph - N/A   Clear
1:53 AM 64.9 °F - 59.0 °F 81% 30.06 in 10.0 mi South 16.1 mph - N/A   Clear
2:53 AM 63.0 °F - 59.0 °F 87% 30.09 in 10.0 mi South 13.8 mph - N/A   Clear
3:53 AM 63.0 °F - 59.0 °F 87% 30.07 in 10.0 mi South 15.0 mph - N/A   Clear
4:53 AM 63.0 °F - 59.0 °F 87% 30.06 in 10.0 mi South 15.0 mph - N/A   Clear
5:53 AM 62.1 °F - 59.0 °F 90% 30.07 in 10.0 mi SSW 11.5 mph - N/A   Clear
6:53 AM 63.0 °F - 59.0 °F 87% 30.06 in 10.0 mi SSW 17.3 mph - N/A   Clear
7:53 AM 66.0 °F - 59.0 °F 78% 30.07 in 10.0 mi SSW 16.1 mph - N/A   Clear
8:53 AM 69.1 °F - 60.1 °F 73% 30.07 in 10.0 mi SSW 17.3 mph - N/A   Clear
9:53 AM 73.9 °F - 64.0 °F 71% 30.08 in 10.0 mi SSW 17.3 mph 25.3 mph N/A   Partly Cloudy
10:11 AM 73.4 °F - 62.6 °F 69% 30.14 in 10.0 mi SSW 19.6 mph - N/A   Mostly Cloudy
10:53 AM 73.9 °F - 63.0 °F 68% 30.08 in 10.0 mi SSE 18.4 mph - N/A   Overcast
11:12 AM 77.0 °F - 62.6 °F 61% 30.13 in 10.0 mi SSE 17.3 mph 25.3 mph N/A   Mostly Cloudy
11:53 AM 77.0 °F - 63.0 °F 62% 30.07 in 10.0 mi SSE 20.7 mph 26.5 mph N/A   Mostly Cloudy
12:40 PM 77.0 °F - 64.4 °F 65% 30.12 in 10.0 mi SSE 17.3 mph - N/A   Mostly Cloudy
12:53 PM 79.0 °F - 64.0 °F 60% 30.06 in 10.0 mi SSE 21.9 mph 25.3 mph N/A   Partly Cloudy
1:53 PM 81.0 °F 82.2 °F 63.0 °F 54% 30.04 in 10.0 mi South 20.7 mph 28.8 mph N/A   Scattered Clouds
2:53 PM 82.9 °F 83.3 °F 61.0 °F 47% 29.99 in 10.0 mi South 23.0 mph 33.4 mph N/A   Partly Cloudy
3:53 PM 84.0 °F 84.4 °F 61.0 °F 46% 29.99 in 10.0 mi South 19.6 mph 27.6 mph N/A   Mostly Cloudy
4:53 PM 84.9 °F 84.8 °F 60.1 °F 43% 29.96 in 10.0 mi SSE 26.5 mph 32.2 mph N/A   Scattered Clouds
5:53 PM 82.0 °F 83.1 °F 63.0 °F 52% 29.96 in 10.0 mi SSE 24.2 mph 31.1 mph N/A   Partly Cloudy
6:53 PM 80.1 °F 81.7 °F 64.0 °F 58% 29.94 in 10.0 mi SE 21.9 mph 32.2 mph N/A   Scattered Clouds
7:53 PM 75.9 °F - 64.0 °F 67% 29.94 in 10.0 mi SSE 20.7 mph - N/A   Clear
8:53 PM 73.0 °F - 64.0 °F 73% 29.94 in 10.0 mi SE 16.1 mph - N/A   Clear
9:53 PM 71.1 °F - 66.0 °F 84% 29.96 in 10.0 mi SSE 18.4 mph - N/A   Clear
10:53 PM 70.0 °F - 66.0 °F 87% 29.96 in 10.0 mi SSE 18.4 mph - N/A   Clear
11:53 PM 70.0 °F - 66.0 °F 87% 29.97 in 10.0 mi South 21.9 mph - N/A   Clear